Time,TemperatureF,DewpointF,PressureIn,WindDirection,WindDirectionDegrees,WindSpeedMPH,WindSpeedGustMPH,Humidity,HourlyPrecipIn,Conditions,Clouds,dailyrainin,SoftwareType,DateUTC
2013-01-18 17:23:00,37.0,23.0,30.03,South,185,5.0,10.0,56,0.00,,,0.00,,2013-01-18 22:23:00,
2013-01-18 17:33:00,36.0,22.0,30.03,SW,217,4.0,15.0,57,0.00,,,0.00,,2013-01-18 22:33:00,
2013-01-18 17:43:00,36.0,22.0,30.03,SW,217,4.0,15.0,57,0.00,,,0.00,,2013-01-18 22:43:00,
2013-01-18 17:53:00,36.0,22.0,30.03,WSW,254,4.0,11.0,57,0.00,,,0.00,,2013-01-18 22:53:00,
2013-01-18 18:02:00,36.0,22.0,30.03,WSW,254,4.0,11.0,57,0.00,,,0.00,,2013-01-18 23:02:00,
2013-01-18 18:12:00,36.0,22.0,30.03,WSW,254,4.0,11.0,57,0.00,,,0.00,,2013-01-18 23:12:00,
2013-01-18 18:22:00,36.0,22.0,30.03,WSW,254,4.0,11.0,57,0.00,,,0.00,,2013-01-18 23:22:00,
2013-01-18 20:23:00,37.0,23.0,29.99,WSW,239,7.0,14.0,56,0.00,,,0.00,,2013-01-19 01:23:00,
2013-01-18 20:33:00,37.0,23.0,29.98,SW,229,2.0,13.0,56,0.00,,,0.00,,2013-01-19 01:33:00,
2013-01-18 20:43:00,37.0,23.0,29.98,SW,229,2.0,13.0,56,0.00,,,0.00,,2013-01-19 01:43:00,
2013-01-18 20:53:00,37.0,23.0,29.98,SW,227,6.0,15.0,57,0.00,,,0.00,,2013-01-19 01:53:00,
2013-01-18 21:02:00,37.0,24.0,29.98,WSW,258,5.0,18.0,58,0.00,,,0.00,,2013-01-19 02:02:00,
2013-01-18 21:12:00,37.0,24.0,29.98,WSW,258,5.0,18.0,58,0.00,,,0.00,,2013-01-19 02:12:00,
2013-01-18 21:22:00,37.0,24.0,29.98,SW,234,6.0,17.0,59,0.00,,,0.00,,2013-01-19 02:22:00,
2013-01-18 21:33:00,37.0,24.0,29.97,West,278,9.0,17.0,60,0.00,,,0.00,,2013-01-19 02:33:00,
2013-01-18 21:42:00,37.0,24.0,29.97,West,278,9.0,17.0,60,0.00,,,0.00,,2013-01-19 02:42:00,
2013-01-18 21:53:00,37.0,24.0,29.97,WSW,237,6.0,14.0,60,0.00,,,0.00,,2013-01-19 02:53:00,
2013-01-18 22:02:00,37.0,25.0,29.97,WSW,251,4.0,14.0,62,0.00,,,0.00,,2013-01-19 03:02:00,
2013-01-18 22:12:00,37.0,25.0,29.97,WSW,251,4.0,14.0,62,0.00,,,0.00,,2013-01-19 03:12:00,
2013-01-18 22:22:00,37.0,25.0,29.97,WSW,239,4.0,23.0,62,0.00,,,0.00,,2013-01-19 03:22:00,
2013-01-18 22:32:00,37.0,26.0,29.96,WSW,239,5.0,13.0,63,0.00,,,0.00,,2013-01-19 03:32:00,
2013-01-18 22:43:00,37.0,26.0,29.96,WSW,239,5.0,13.0,63,0.00,,,0.00,,2013-01-19 03:43:00,
2013-01-18 22:52:00,37.0,26.0,29.95,SW,223,7.0,20.0,63,0.00,,,0.00,,2013-01-19 03:52:00,
2013-01-18 23:02:00,37.0,26.0,29.95,SW,216,6.0,15.0,64,0.00,,,0.00,,2013-01-19 04:02:00,
2013-01-18 23:12:00,37.0,26.0,29.95,SW,216,6.0,15.0,64,0.00,,,0.00,,2013-01-19 04:12:00,
2013-01-18 23:22:00,37.0,26.0,29.95,SW,233,9.0,15.0,64,0.00,,,0.00,,2013-01-19 04:22:00,
2013-01-18 23:32:00,37.0,26.0,29.94,SW,224,3.0,15.0,64,0.00,,,0.00,,2013-01-19 04:32:00,
2013-01-18 23:42:00,37.0,26.0,29.94,SW,224,3.0,15.0,64,0.00,,,0.00,,2013-01-19 04:42:00,
2013-01-18 23:53:00,37.0,26.0,29.94,SW,227,7.0,16.0,64,0.00,,,0.00,,2013-01-19 04:53:00,